Location: Blienschwiller
(48.3416°N, 7.4182°E)
Time: 16:49:13
(UTC+00:00)

Cosmos 1934 Rocket - Pass Details

Date: 18 February 2020
Orbit: 939 x 998 km, 83.0° (Epoch: 06 April)

Event Time Altitude Azimuth Distance (km) Brightness Sun altitude
Rises 04:06:49 0° 347° (NNW) 3,689 7.0 -24.9°
Reaches altitude 10° 04:09:23 10° 342° (NNW) 2,745 6.3 -24.5°
Maximum altitude 04:15:25 51° 269° (W) 1,238 4.1 -23.5°
Enters shadow 04:17:10 40° 225° (SW) 1,427 4.5 -23.2°
Exits shadow 04:18:52 25° 207° (SSW) 1,871 5.2 -23.0°
Drops below altitude 10° 04:21:30 10° 196° (SSW) 2,756 6.1 -22.5°
Sets 04:24:05 0° 191° (S) 3,704 6.9 -22.1°
